User: anonymous   Login
Location: Caltech
(34.1382°N, 118.1253°W)
Time: 21:43:34
(UTC-07:00)
Language:

Oscar 10/S400 - Orbit

View from above orbital plane
View from above orbital plane
View from above satellite
View from above satellite

Ground track
Ground track

The orbit data is extracted from the following two-line orbital elements,

1 14129U 83058B   17234.45161491 -.00000453 +00000-0 +00000-0 0  9992
2 14129 027.0961 023.5512 6026787 323.2832 009.5598 02.05868426229191
Epoch (UTC): 22 August 2017 10:50:19
Eccentricity: 0.6026787
inclination: 27.0961°
perigee height: 3993 km
apogee height: 35455 km
right ascension of ascending node: 23.5512°
argument of perigee: 323.2832°
revolutions per day: 2.05868426
mean anomaly at epoch: 9.5598°
orbit number at epoch: 22919

The dashed part of the orbit path shows where the satellite is in the earth's shadow,  

DLR